User: anonymous   Login
Location: Belfast
(54.5830°N, 5.9330°W)
Time: 22:16:22
(UTC+01:00)
Language:

Coronas F rocket - Orbit

View from above orbital plane
View from above orbital plane
View from above satellite
View from above satellite

Ground track
Ground track

The orbit data is extracted from the following two-line orbital elements,

1 26874U 01032B   15144.48979442  .00012994  00000-0  13421-3 0  9994
2 26874 082.4659 342.8377 0010398 226.8090 133.2301 15.64524714774421
Epoch (UTC): 24 May 2015 11:45:18
Eccentricity: 0.0010398
inclination: 82.4659°
perigee height: 367 km
apogee height: 381 km
right ascension of ascending node: 342.8377°
argument of perigee: 226.8090°
revolutions per day: 15.64524714
mean anomaly at epoch: 133.2301°
orbit number at epoch: 77442

The dashed part of the orbit path shows where the satellite is in the earth's shadow,  

DLR